Regional Weather Roundup
Issued by NWS

Home | Current Version | Previous Version | Graphics & Text | Print | Product List | Glossary On
Versions: 1 2 3 4 5 6 7 8 9 10 11 12 13 14 15 16 17 18 19 20 21 22 23 24 25 26 27 28 29 30 31 32 33 34 35 36 37 38 39 40 41 42 43 44 45 46 47 48 49 50
000
ASUS44 KMEG 172110
RWRTN
TENNESSEE HOURLY STATE WEATHER ROUNDUP
NATIONAL WEATHER SERVICE MEMPHIS TN
300 PM CST TUE JAN 17 2017

TNZ002-004-019-021-049-052-054-088>092-172200-
WEST TENNESSEE

CITY           SKY/WX    TMP DP  RH WIND       PRES   REMARKS
MEMPHIS INTL   CLOUDY    55  46  71 W7        30.12R
NWS MEMPHIS      N/A     55 N/A N/A MISG        N/A
JACKSON        CLOUDY    55  44  66 W13       30.10R
DYERSBURG      CLOUDY    52  43  71 NW9       30.09R
UNION CITY     PTSUNNY   50  45  81 SW9       30.07R
PARIS          CLOUDY    52  45  76 W12       30.06R
HUNTINGDON     PTSUNNY   55  48  76 W8G15     30.06R
$$

TNZ008-025-027-028-033-062-065-066-172200-
NORTH MIDDLE TENNESSEE

CITY           SKY/WX    TMP DP  RH WIND       PRES   REMARKS
NASHVILLE      CLOUDY    62  54  74 SW8       30.02S
PORTLAND       SUNNY     63  52  67 W8G20     30.01R
CLARKSVILLE    CLOUDY    57  45  64 W13       30.03R
SMYRNA         CLOUDY    62  59  90 W6        30.03S
GALLATIN       MOSUNNY   63  55  77 SW9G17    30.05R
CROSSVILLE     CLOUDY    60  58  92 SW8G18    30.05F
$$

TNZ061-075-076-078-094-096-097-172200-
SOUTH MIDDLE TENNESSEE

CITY           SKY/WX    TMP DP  RH WIND       PRES   REMARKS
FAYETTEVILLE   CLOUDY    64  63  94 SW9       30.07S
TULLAHOMA      CLOUDY    63  63 100 S12       30.06S
WINCHESTER     CLOUDY    63  63 100 SW6       30.07R
MCMINNVILLE    CLOUDY    63  63 100 SW9       30.04S
COLUMBIA       CLOUDY   N/A N/A N/A SW10      30.03R
SHELBYVILLE    CLOUDY    64  64 100 S12       30.05R
$$

TNZ017-018-042-046-047-172200-
NORTHEAST TENNESSEE

CITY           SKY/WX    TMP DP  RH WIND       PRES   REMARKS
TRI CITIES     LGT RAIN  58  55  90 CALM      30.05F
ELIZABETHTON   CLOUDY    59  57  94 CALM      30.05S
$$

TNZ012-013-036-069-073-074-172200-
CENTRAL EAST TENNESSEE

CITY           SKY/WX    TMP DP  RH WIND       PRES   REMARKS
KNOXVILLE      LGT RAIN  62  59  90 SW17G28   30.04R FOG
OAK RIDGE      LGT RAIN  61  59  93 VRB3      30.05S FOG
GATLINBURG     CLOUDY    63  57  82 SW9       30.05R
MORRISTOWN     CLOUDY    61  59  94 W9        30.04S
JACKSBORO      CLOUDY    61  59  94 E7        30.04F FOG
$$

TNZ083-085-099-172200-
SOUTHEAST TENNESSEE

CITY           SKY/WX    TMP DP  RH WIND       PRES   REMARKS
CHATTANOOGA    CLOUDY    69  58  67 S9        30.08S
$$

SKY/WX REPORTED AS FAIR MEANS FEW OR NO CLOUDS BELOW
12 THOUSAND FEET.





USA.gov is the U.S. government's official web portal to all federal, state and local government web resources and services.